QPF
0.00 0.00 0.01 0.02 0.02 0.02 0.02 0.02 0.02 0.01 0.00 0.00 0.00 0.00 0.00 0.00 0.00 0.01 0.02 0.02 0.03 0.04 0.05 0.05 0.07 0.10 0.12 0.13 0.16 0.18 0.20 0.22 0.16 0.10 0.10 0.13 0.12 0.08 0.06 0.04 0.02 0.01 0.01
0.00 0.00 0.01 0.02 0.03 0.04 0.04 0.04 0.03 0.02 0.01 0.00 0.00 0.00 0.00 0.00 0.00 0.01 0.01 0.01 0.02 0.04 0.05 0.07 0.09 0.11 0.13 0.14 0.15 0.16 0.16 0.17 0.14 0.12 0.10 0.09 0.09 0.08 0.06 0.04 0.03 0.01 0.01
0.00 0.00 0.00 0.01 0.02 0.03 0.04 0.06 0.06 0.04 0.02 0.01 0.00 0.00 0.00 0.00 0.01 0.01 0.01 0.01 0.02 0.02 0.04 0.08 0.12 0.16 0.14 0.15 0.14 0.12 0.11 0.12 0.11 0.10 0.09 0.07 0.06 0.05 0.04 0.04 0.02 0.01 0.00
0.00 0.00 0.00 0.00 0.01 0.02 0.03 0.04 0.05 0.06 0.05 0.02 0.01 0.00 0.00 0.00 0.00 0.00 0.00 0.01 0.03 0.04 0.05 0.10 0.15 0.18 0.18 0.18 0.16 0.14 0.12 0.11 0.09 0.08 0.07 0.06 0.04 0.03 0.02 0.02 0.01 0.00 0.00
0.01 0.01 0.01 0.01 0.01 0.01 0.01 0.03 0.04 0.05 0.05 0.04 0.02 0.01 0.00 0.00 0.00 0.00 0.01 0.01 0.02 0.04 0.05 0.07 0.14 0.21 0.24 0.24 0.19 0.14 0.12 0.11 0.09 0.07 0.05 0.04 0.02 0.02 0.01 0.00 0.00 0.00 0.00
0.04 0.04 0.03 0.03 0.03 0.03 0.02 0.02 0.03 0.05 0.06 0.06 0.04 0.02 0.01 0.00 0.00 0.00 0.00 0.01 0.02 0.03 0.04 0.05 0.06 0.10 0.14 0.18 0.16 0.10 0.07 0.06 0.06 0.05 0.04 0.03 0.03 0.02 0.01 0.00 0.00 0.00 0.00
0.03 0.02 0.02 0.02 0.02 0.02 0.02 0.02 0.02 0.04 0.07 0.07 0.06 0.04 0.02 0.01 0.00 0.00 0.00 0.00 0.01 0.02 0.02 0.02 0.02 0.04 0.05 0.05 0.04 0.03 0.03 0.02 0.02 0.03 0.02 0.02 0.01 0.01 0.00 0.00 0.00 0.00 0.00
0.00 0.01 0.01 0.01 0.00 0.01 0.01 0.02 0.03 0.05 0.06 0.09 0.09 0.08 0.06 0.04 0.00 0.00 0.00 0.00 0.00 0.00 0.00 0.00 0.01 0.02 0.02 0.02 0.02 0.01 0.01 0.00 0.01 0.01 0.01 0.01 0.00 0.00 0.00 0.00 0.00 0.00 0.00
0.00 0.00 0.00 0.00 0.00 0.00 0.01 0.02 0.04 0.06 0.08 0.10 0.12 0.12 0.10 0.07 0.01 0.00 0.00 0.00 0.00 0.00 0.00 0.00 0.00 0.00 0.01 0.01 0.01 0.01 0.00 0.00 0.00 0.00 0.00 0.00 0.00 0.00 0.00 0.00 0.00 0.00 0.00
0.00 0.00 0.01 0.01 0.01 0.01 0.01 0.02 0.04 0.07 0.11 0.14 0.15 0.15 0.14 0.12 0.04 0.00 0.00 0.00 0.01 0.00 0.00 0.00 0.00 0.00 0.00 0.00 0.00 0.00 0.00 0.00 0.00 0.00 0.00 0.00 0.00 0.00 0.00 0.00 0.00 0.00 0.00
0.00 0.01 0.01 0.01 0.02 0.02 0.02 0.02 0.03 0.06 0.13 0.18 0.19 0.19 0.19 0.19 0.09 0.01 0.00 0.01 0.00 0.00 0.00 0.00 0.00 0.00 0.00 0.00 0.00 0.01 0.00 0.00 0.00 0.00 0.00 0.00 0.00 0.00 0.00 0.00 0.00 0.00 0.00
0.01 0.01 0.01 0.01 0.01 0.01 0.02 0.03 0.03 0.06 0.13 0.23 0.30 0.29 0.26 0.23 0.14 0.04 0.00 0.00 0.00 0.00 0.00 0.00 0.00 0.00 0.00 0.00 0.00 0.00 0.00 0.00 0.00 0.00 0.00 0.00 0.00 0.00 0.00 0.00 0.00 0.00 0.00
0.01 0.01 0.01 0.02 0.02 0.02 0.03 0.03 0.03 0.05 0.13 0.27 0.37 0.38 0.34 0.29 0.21 0.09 0.02 0.01 0.00 0.00 0.00 0.00 0.00 0.00 0.00 0.00 0.00 0.00 0.00 0.00 0.00 0.00 0.00 0.00 0.00 0.00 0.00 0.00 0.00 0.00 0.00
0.02 0.02 0.02 0.02 0.02 0.03 0.04 0.02 0.02 0.03 0.11 0.28 0.41 0.38 0.34 0.32 0.28 0.14 0.04 0.01 0.00 0.00 0.00 0.00 0.00 0.00 0.00 0.00 0.00 0.00 0.00 0.00 0.00 0.00 0.00 0.00 0.00 0.00 0.00 0.00 0.00 0.00 0.00
0.03 0.03 0.02 0.02 0.02 0.02 0.03 0.02 0.02 0.04 0.09 0.23 0.35 0.33 0.30 0.28 0.27 0.17 0.05 0.01 0.00 0.00 0.00 0.00 0.00 0.00 0.00 0.00 0.00 0.00 0.00 0.00 0.00 0.00 0.00 0.00 0.00 0.00 0.00 0.00 0.00 0.00 0.00
0.05 0.04 0.03 0.03 0.02 0.03 0.03 0.02 0.01 0.02 0.05 0.15 0.25 0.26 0.22 0.20 0.23 0.21 0.09 0.03 0.01 0.00 0.00 0.00 0.00 0.00 0.00 0.00 0.00 0.00 0.00 0.00 0.00 0.00 0.00 0.00 0.00 0.00 0.00 0.00 0.00 0.00 0.00
0.06 0.05 0.04 0.04 0.03 0.03 0.03 0.03 0.03 0.03 0.05 0.11 0.16 0.16 0.15 0.16 0.18 0.17 0.11 0.06 0.03 0.01 0.00 0.00 0.00 0.00 0.00 0.00 0.00 0.00 0.00 0.00 0.00 0.00 0.00 0.00 0.00 0.00 0.00 0.00 0.00 0.00 0.00
0.07 0.06 0.05 0.04 0.04 0.04 0.04 0.04 0.04 0.05 0.09 0.13 0.14 0.11 0.12 0.12 0.12 0.11 0.10 0.06 0.03 0.01 0.00 0.00 0.00 0.00 0.00 0.00 0.00 0.00 0.00 0.00 0.00 0.00 0.00 0.00 0.00 0.00 0.00 0.00 0.00 0.00 0.00
0.09 0.07 0.06 0.05 0.05 0.05 0.06 0.05 0.05 0.07 0.12 0.17 0.18 0.14 0.11 0.11 0.10 0.08 0.07 0.04 0.02 0.01 0.00 0.00 0.00 0.00 0.00 0.00 0.00 0.00 0.00 0.00 0.00 0.00 0.00 0.00 0.00 0.00 0.00 0.00 0.00 0.00 0.00
0.09 0.07 0.06 0.05 0.05 0.06 0.07 0.06 0.06 0.09 0.15 0.20 0.21 0.16 0.11 0.10 0.07 0.05 0.03 0.02 0.01 0.00 0.00 0.00 0.00 0.00 0.00 0.00 0.00 0.00 0.00 0.00 0.00 0.00 0.00 0.00 0.00 0.00 0.00 0.00 0.00 0.00 0.00
0.11 0.08 0.06 0.06 0.06 0.07 0.07 0.06 0.08 0.11 0.15 0.20 0.19 0.13 0.09 0.05 0.03 0.02 0.01 0.00 0.00 0.00 0.00 0.00 0.00 0.00 0.00 0.00 0.00 0.00 0.00 0.00 0.00 0.00 0.00 0.00 0.00 0.00 0.00 0.00 0.00 0.00 0.00
0.10 0.08 0.06 0.06 0.06 0.07 0.07 0.08 0.09 0.12 0.15 0.18 0.17 0.09 0.06 0.03 0.02 0.01 0.00 0.00 0.00 0.00 0.00 0.00 0.00 0.00 0.00 0.00 0.00 0.00 0.00 0.00 0.00 0.00 0.00 0.00 0.00 0.00 0.00 0.00 0.00 0.00 0.00
0.07 0.06 0.05 0.05 0.06 0.04 0.04 0.07 0.10 0.13 0.15 0.18 0.15 0.07 0.04 0.03 0.01 0.00 0.00 0.00 0.00 0.00 0.00 0.00 0.00 0.00 0.00 0.00 0.00 0.00 0.00 0.00 0.00 0.00 0.00 0.00 0.00 0.00 0.00 0.00 0.00 0.00 0.00
0.05 0.05 0.05 0.04 0.04 0.05 0.06 0.08 0.11 0.12 0.14 0.15 0.11 0.05 0.02 0.03 0.01 0.01 0.01 0.01 0.00 0.00 0.00 0.00 0.00 0.00 0.00 0.00 0.00 0.00 0.00 0.00 0.00 0.00 0.00 0.00 0.00 0.00 0.00 0.00 0.00 0.00 0.00
0.05 0.04 0.04 0.04 0.04 0.06 0.07 0.09 0.12 0.11 0.11 0.10 0.06 0.03 0.02 0.03 0.01 0.01 0.01 0.01 0.01 0.01 0.01 0.00 0.00 0.00 0.00 0.00 0.00 0.00 0.00 0.00 0.00 0.00 0.00 0.00 0.00 0.00 0.00 0.00 0.00 0.00 0.00
0.03 0.04 0.04 0.05 0.05 0.06 0.08 0.10 0.10 0.08 0.08 0.06 0.03 0.02 0.02 0.02 0.01 0.01 0.01 0.00 0.01 0.01 0.01 0.01 0.00 0.00 0.00 0.00 0.00 0.00 0.00 0.00 0.00 0.00 0.00 0.00 0.00 0.00 0.00 0.00 0.00 0.00 0.00
MSLP
1012.00 1011.58 1011.14 1010.71 1010.29 1009.91 1009.57 1009.30 1009.09 1008.95 1008.85 1008.77 1008.69 1008.59 1008.43 1008.21 1007.92 1007.56 1007.15 1006.71 1006.25 1005.80 1005.39 1005.04 1004.78 1004.62 1004.59 1004.68 1004.91 1005.25 1005.69 1006.20 1006.76 1007.32 1007.87 1008.37 1008.82 1009.22 1009.57 1009.88 1010.15 1010.41 1010.66
1012.49 1012.06 1011.59 1011.09 1010.58 1010.08 1009.61 1009.20 1008.85 1008.58 1008.37 1008.22 1008.10 1007.99 1007.85 1007.68 1007.45 1007.16 1006.82 1006.43 1006.02 1005.61 1005.21 1004.87 1004.61 1004.45 1004.41 1004.50 1004.72 1005.07 1005.52 1006.05 1006.63 1007.22 1007.79 1008.33 1008.81 1009.24 1009.61 1009.94 1010.24 1010.53 1010.81
1012.82 1012.40 1011.92 1011.39 1010.82 1010.23 1009.66 1009.13 1008.67 1008.30 1008.00 1007.78 1007.63 1007.50 1007.39 1007.27 1007.11 1006.90 1006.65 1006.35 1006.01 1005.66 1005.31 1005.00 1004.76 1004.60 1004.55 1004.63 1004.83 1005.15 1005.58 1006.08 1006.63 1007.20 1007.76 1008.28 1008.75 1009.17 1009.54 1009.87 1010.17 1010.47 1010.76
1012.84 1012.46 1012.00 1011.47 1010.88 1010.25 1009.63 1009.04 1008.50 1008.05 1007.70 1007.43 1007.25 1007.12 1007.03 1006.96 1006.87 1006.75 1006.60 1006.40 1006.16 1005.90 1005.64 1005.39 1005.19 1005.05 1005.01 1005.07 1005.24 1005.52 1005.89 1006.33 1006.82 1007.32 1007.82 1008.28 1008.70 1009.08 1009.41 1009.72 1010.00 1010.29 1010.58
1012.48 1012.15 1011.73 1011.23 1010.66 1010.05 1009.43 1008.82 1008.27 1007.79 1007.40 1007.11 1006.91 1006.79 1006.72 1006.69 1006.67 1006.64 1006.58 1006.50 1006.38 1006.24 1006.08 1005.92 1005.79 1005.71 1005.69 1005.74 1005.89 1006.11 1006.41 1006.77 1007.17 1007.58 1007.98 1008.37 1008.71 1009.03 1009.30 1009.56 1009.81 1010.07 1010.35
1011.74 1011.45 1011.08 1010.64 1010.14 1009.58 1009.01 1008.44 1007.92 1007.45 1007.06 1006.76 1006.56 1006.44 1006.38 1006.38 1006.41 1006.46 1006.50 1006.53 1006.54 1006.53 1006.50 1006.46 1006.43 1006.42 1006.44 1006.52 1006.64 1006.83 1007.06 1007.34 1007.64 1007.96 1008.26 1008.55 1008.82 1009.06 1009.28 1009.48 1009.69 1009.92 1010.17
1010.69 1010.43 1010.12 1009.75 1009.33 1008.87 1008.38 1007.89 1007.42 1006.99 1006.62 1006.33 1006.13 1006.00 1005.95 1005.96 1006.03 1006.14 1006.26 1006.40 1006.53 1006.65 1006.76 1006.86 1006.95 1007.04 1007.13 1007.24 1007.38 1007.54 1007.73 1007.94 1008.17 1008.40 1008.62 1008.84 1009.03 1009.21 1009.37 1009.53 1009.71 1009.90 1010.12
1009.45 1009.21 1008.95 1008.66 1008.33 1007.97 1007.58 1007.18 1006.79 1006.41 1006.08 1005.80 1005.59 1005.46 1005.40 1005.42 1005.50 1005.65 1005.84 1006.07 1006.31 1006.56 1006.81 1007.04 1007.25 1007.45 1007.63 1007.81 1007.98 1008.15 1008.32 1008.50 1008.68 1008.85 1009.02 1009.18 1009.33 1009.47 1009.61 1009.74 1009.89 1010.06 1010.25
1008.17 1007.94 1007.72 1007.50 1007.26 1006.99 1006.71 1006.40 1006.08 1005.76 1005.46 1005.20 1004.98 1004.84 1004.77 1004.78 1004.88 1005.05 1005.29 1005.59 1005.93 1006.29 1006.65 1007.00 1007.33 1007.64 1007.91 1008.16 1008.38 1008.58 1008.77 1008.94 1009.11 1009.26 1009.41 1009.56 1009.69 1009.82 1009.95 1010.08 1010.22 1010.38 1010.55
1006.97 1006.75 1006.56 1006.39 1006.22 1006.04 1005.83 1005.60 1005.35 1005.08 1004.81 1004.57 1004.36 1004.21 1004.14 1004.15 1004.26 1004.45 1004.73 1005.09 1005.49 1005.93 1006.38 1006.83 1007.25 1007.65 1008.00 1008.32 1008.59 1008.84 1009.05 1009.25 1009.43 1009.60 1009.76 1009.92 1010.07 1010.22 1010.36 1010.50 1010.65 1010.80 1010.97
1005.92 1005.70 1005.53 1005.40 1005.28 1005.16 1005.01 1004.84 1004.64 1004.42 1004.19 1003.98 1003.80 1003.67 1003.61 1003.64 1003.77 1003.99 1004.30 1004.69 1005.14 1005.62 1006.13 1006.63 1007.11 1007.56 1007.98 1008.34 1008.67 1008.95 1009.21 1009.44 1009.66 1009.86 1010.06 1010.24 1010.43 1010.60 1010.77 1010.94 1011.10 1011.26 1011.42
1005.02 1004.81 1004.65 1004.54 1004.45 1004.36 1004.25 1004.13 1003.97 1003.80 1003.63 1003.47 1003.34 1003.26 1003.26 1003.33 1003.50 1003.76 1004.10 1004.51 1004.98 1005.49 1006.00 1006.52 1007.02 1007.49 1007.92 1008.32 1008.67 1008.99 1009.28 1009.55 1009.81 1010.05 1010.28 1010.51 1010.73 1010.93 1011.13 1011.32 1011.50 1011.67 1011.82
1004.23 1004.01 1003.86 1003.76 1003.68 1003.61 1003.53 1003.44 1003.33 1003.22 1003.12 1003.04 1003.00 1003.02 1003.10 1003.26 1003.49 1003.80 1004.18 1004.61 1005.07 1005.56 1006.06 1006.55 1007.02 1007.47 1007.90 1008.29 1008.65 1008.99 1009.31 1009.61 1009.90 1010.17 1010.44 1010.70 1010.95 1011.18 1011.40 1011.61 1011.80 1011.97 1012.12
1003.45 1003.25 1003.10 1002.99 1002.91 1002.84 1002.78 1002.72 1002.68 1002.65 1002.64 1002.68 1002.76 1002.91 1003.11 1003.38 1003.70 1004.08 1004.48 1004.92 1005.36 1005.81 1006.26 1006.69 1007.11 1007.51 1007.89 1008.26 1008.62 1008.96 1009.30 1009.62 1009.94 1010.25 1010.54 1010.82 1011.09 1011.34 1011.57 1011.78 1011.97 1012.14 1012.29
1002.63 1002.43 1002.27 1002.16 1002.07 1002.00 1001.96 1001.95 1001.97 1002.04 1002.15 1002.33 1002.56 1002.86 1003.21 1003.60 1004.02 1004.45 1004.89 1005.32 1005.73 1006.12 1006.49 1006.85 1007.19 1007.53 1007.86 1008.20 1008.55 1008.90 1009.25 1009.60 1009.94 1010.27 1010.59 1010.89 1011.16 1011.41 1011.64 1011.85 1012.04 1012.20 1012.35
1001.71 1001.51 1001.35 1001.23 1001.14 1001.08 1001.07 1001.10 1001.20 1001.37 1001.61 1001.94 1002.33 1002.78 1003.27 1003.78 1004.29 1004.78 1005.23 1005.64 1006.00 1006.32 1006.61 1006.88 1007.15 1007.43 1007.72 1008.04 1008.38 1008.75 1009.12 1009.50 1009.88 1010.24 1010.58 1010.89 1011.17 1011.42 1011.64 1011.84 1012.02 1012.19 1012.34
1000.71 1000.52 1000.36 1000.24 1000.15 1000.10 1000.12 1000.21 1000.38 1000.66 1001.02 1001.48 1002.02 1002.60 1003.21 1003.81 1004.38 1004.90 1005.35 1005.72 1006.03 1006.28 1006.49 1006.69 1006.90 1007.14 1007.41 1007.73 1008.09 1008.49 1008.91 1009.33 1009.75 1010.15 1010.51 1010.84 1011.12 1011.38 1011.60 1011.79 1011.97 1012.14 1012.29
999.69 999.51 999.36 999.25 999.17 999.14 999.19 999.33 999.58 999.94 1000.41 1000.97 1001.61 1002.29 1002.97 1003.63 1004.23 1004.74 1005.17 1005.49 1005.74 1005.92 1006.08 1006.23 1006.41 1006.63 1006.91 1007.26 1007.67 1008.12 1008.60 1009.09 1009.56 1010.00 1010.40 1010.75 1011.05 1011.30 1011.53 1011.72 1011.90 1012.08 1012.24
998.72 998.58 998.45 998.35 998.29 998.29 998.38 998.56 998.86 999.28 999.81 1000.44 1001.13 1001.85 1002.56 1003.23 1003.81 1004.30 1004.68 1004.95 1005.15 1005.28 1005.40 1005.53 1005.71 1005.96 1006.28 1006.69 1007.16 1007.69 1008.24 1008.79 1009.32 1009.81 1010.25 1010.62 1010.94 1011.20 1011.43 1011.63 1011.82 1012.00 1012.18
997.91 997.80 997.71 997.64 997.61 997.64 997.75 997.96 998.29 998.73 999.29 999.93 1000.62 1001.34 1002.03 1002.66 1003.20 1003.64 1003.97 1004.20 1004.35 1004.47 1004.58 1004.72 1004.93 1005.23 1005.62 1006.09 1006.65 1007.25 1007.88 1008.49 1009.08 1009.60 1010.07 1010.46 1010.78 1011.06 1011.29 1011.50 1011.70 1011.89 1012.07
997.30 997.24 997.19 997.16 997.16 997.22 997.34 997.57 997.90 998.33 998.87 999.48 1000.14 1000.81 1001.44 1002.02 1002.50 1002.88 1003.17 1003.37 1003.51 1003.63 1003.77 1003.96 1004.22 1004.59 1005.05 1005.60 1006.23 1006.90 1007.57 1008.23 1008.84 1009.39 1009.86 1010.26 1010.58 1010.85 1011.09 1011.30 1011.49 1011.69 1011.88
996.91 996.91 996.91 996.92 996.95 997.02 997.15 997.37 997.67 998.07 998.56 999.11 999.71 1000.30 1000.87 1001.38 1001.81 1002.15 1002.41 1002.61 1002.77 1002.93 1003.12 1003.37 1003.71 1004.15 1004.68 1005.30 1005.97 1006.67 1007.37 1008.04 1008.65 1009.18 1009.63 1010.01 1010.32 1010.57 1010.79 1010.99 1011.18 1011.36 1011.55
996.73 996.78 996.82 996.86 996.91 996.98 997.10 997.29 997.56 997.91 998.33 998.81 999.33 999.85 1000.35 1000.81 1001.20 1001.53 1001.80 1002.02 1002.23 1002.45 1002.72 1003.06 1003.47 1003.98 1004.56 1005.22 1005.91 1006.60 1007.28 1007.91 1008.48 1008.97 1009.37 1009.70 1009.97 1010.19 1010.39 1010.56 1010.74 1010.91 1011.07
996.68 996.77 996.83 996.89 996.94 997.00 997.10 997.25 997.47 997.75 998.11 998.52 998.97 999.43 999.89 1000.31 1000.70 1001.04 1001.35 1001.64 1001.92 1002.23 1002.58 1003.00 1003.48 1004.04 1004.65 1005.31 1005.98 1006.64 1007.26 1007.82 1008.31 1008.72 1009.06 1009.32 1009.54 1009.71 1009.87 1010.03 1010.18 1010.33 1010.48
996.71 996.80 996.86 996.91 996.94 996.98 997.05 997.16 997.32 997.55 997.85 998.21 998.60 999.03 999.46 999.89 1000.29 1000.68 1001.05 1001.41 1001.79 1002.19 1002.62 1003.11 1003.65 1004.23 1004.85 1005.48 1006.10 1006.69 1007.23 1007.70 1008.10 1008.42 1008.67 1008.87 1009.03 1009.16 1009.29 1009.41 1009.54 1009.68 1009.81
996.74 996.80 996.85 996.86 996.87 996.87 996.90 996.96 997.08 997.27 997.52 997.84 998.21 998.62 999.05 999.49 999.94 1000.38 1000.83 1001.27 1001.73 1002.21 1002.72 1003.25 1003.82 1004.41 1005.01 1005.60 1006.15 1006.66 1007.11 1007.49 1007.80 1008.03 1008.21 1008.35 1008.46 1008.56 1008.66 1008.77 1008.89 1009.02 1009.15
Thickness
5671 5673 5677 5680 5683 5685 5685 5685 5684 5682 5679 5677 5677 5677 5677 5678 5679 5678 5679 5680 5679 5679 5678 5678 5678 5679 5680 5681 5682 5682 5680 5678 5673 5666 5662 5660 5660 5660 5660 5660 5662 5661 5661
5651 5653 5657 5661 5666 5670 5673 5675 5675 5674 5672 5671 5671 5671 5671 5673 5673 5673 5673 5675 5674 5674 5674 5673 5673 5674 5673 5674 5674 5674 5674 5673 5667 5657 5651 5651 5650 5651 5652 5652 5653 5652 5650
5633 5634 5637 5640 5645 5651 5656 5661 5663 5664 5665 5665 5665 5665 5666 5667 5667 5668 5668 5668 5668 5668 5668 5667 5666 5666 5665 5664 5665 5664 5664 5662 5657 5650 5644 5643 5643 5644 5645 5645 5646 5644 5642
5612 5613 5616 5618 5623 5629 5637 5644 5649 5652 5654 5656 5658 5659 5660 5661 5661 5662 5662 5661 5661 5661 5660 5660 5659 5658 5657 5655 5654 5653 5652 5649 5645 5641 5637 5635 5636 5639 5640 5640 5639 5639 5639
5592 5593 5595 5598 5602 5607 5615 5624 5632 5637 5642 5646 5649 5651 5653 5654 5656 5655 5654 5654 5654 5653 5653 5652 5650 5648 5646 5645 5644 5642 5641 5638 5635 5633 5631 5632 5633 5633 5637 5638 5635 5634 5632
5577 5579 5580 5582 5585 5589 5595 5604 5612 5619 5627 5633 5639 5643 5645 5648 5645 5642 5643 5646 5646 5646 5646 5644 5641 5638 5635 5634 5633 5632 5632 5631 5630 5630 5629 5628 5628 5631 5633 5633 5632 5631 5627
5563 5563 5565 5567 5570 5575 5579 5585 5593 5601 5609 5617 5626 5632 5636 5637 5633 5631 5631 5637 5638 5637 5637 5637 5635 5630 5627 5625 5622 5621 5621 5623 5625 5628 5625 5623 5622 5623 5625 5626 5626 5628 5624
5544 5545 5547 5549 5553 5558 5562 5567 5574 5583 5591 5599 5610 5619 5625 5626 5622 5621 5622 5627 5630 5628 5628 5627 5625 5622 5619 5618 5616 5615 5613 5612 5616 5619 5617 5616 5615 5616 5618 5618 5617 5616 5616
5524 5525 5527 5529 5533 5537 5541 5547 5554 5562 5571 5580 5591 5602 5610 5614 5610 5611 5611 5619 5619 5619 5619 5618 5617 5614 5609 5609 5609 5607 5604 5602 5601 5602 5603 5602 5603 5606 5609 5613 5613 5615 5612
5511 5511 5512 5514 5516 5518 5522 5527 5534 5542 5552 5563 5573 5584 5594 5602 5600 5600 5599 5611 5611 5611 5609 5608 5606 5605 5599 5601 5603 5601 5599 5596 5596 5595 5594 5595 5598 5600 5602 5608 5612 5613 5610
5505 5505 5505 5505 5506 5507 5509 5511 5515 5522 5533 5543 5555 5566 5576 5586 5587 5588 5591 5602 5604 5604 5604 5602 5598 5591 5591 5592 5595 5596 5593 5592 5592 5591 5591 5593 5595 5597 5599 5601 5604 5608 5607
5500 5500 5500 5500 5501 5505 5506 5505 5505 5509 5517 5527 5539 5549 5559 5569 5576 5577 5580 5585 5593 5596 5598 5598 5589 5582 5582 5584 5587 5584 5584 5587 5589 5589 5590 5591 5592 5592 5592 5592 5592 5592 5594
5494 5494 5495 5497 5498 5500 5501 5501 5500 5503 5509 5519 5528 5537 5546 5555 5564 5567 5567 5572 5579 5587 5588 5582 5578 5574 5574 5576 5573 5575 5579 5585 5586 5587 5588 5588 5587 5585 5585 5583 5583 5584 5585
5485 5487 5489 5491 5495 5498 5498 5501 5503 5507 5512 5515 5521 5528 5535 5544 5554 5557 5559 5563 5567 5573 5573 5567 5566 5568 5572 5568 5567 5572 5579 5583 5585 5585 5584 5583 5582 5581 5583 5584 5584 5585 5584
5476 5478 5481 5485 5491 5496 5500 5502 5506 5508 5514 5513 5519 5523 5529 5537 5546 5551 5558 5563 5567 5571 5566 5567 5569 5570 5571 5570 5571 5574 5576 5577 5580 5581 5580 5580 5580 5580 5581 5583 5583 5585 5584
5468 5470 5473 5478 5485 5493 5499 5503 5504 5504 5504 5505 5508 5513 5522 5528 5536 5542 5549 5556 5558 5558 5564 5567 5569 5571 5572 5572 5572 5572 5574 5576 5578 5578 5578 5578 5579 5578 5578 5579 5580 5582 5581
5460 5463 5467 5472 5479 5488 5496 5502 5506 5502 5498 5499 5502 5506 5513 5520 5528 5535 5540 5544 5547 5551 5563 5567 5569 5571 5572 5573 5573 5574 5575 5575 5575 5576 5576 5577 5577 5576 5575 5576 5577 5577 5576
5456 5458 5461 5467 5475 5484 5493 5501 5507 5509 5508 5507 5503 5503 5509 5515 5522 5528 5532 5535 5539 5547 5563 5567 5570 5571 5573 5573 5574 5575 5574 5572 5572 5574 5574 5574 5574 5574 5573 5573 5573 5573 5572
5452 5454 5459 5466 5474 5482 5490 5498 5505 5509 5511 5512 5512 5508 5507 5512 5517 5522 5529 5539 5546 5551 5562 5568 5571 5572 5573 5573 5574 5574 5573 5571 5571 5572 5572 5570 5572 5572 5571 5572 5570 5559 5565
5450 5452 5457 5465 5473 5481 5489 5497 5504 5507 5508 5510 5512 5512 5510 5515 5520 5522 5531 5543 5552 5558 5565 5569 5572 5573 5573 5573 5573 5573 5573 5570 5568 5569 5570 5569 5569 5570 5569 5568 5567 5563 5563
5451 5455 5457 5465 5474 5483 5491 5499 5505 5508 5509 5511 5512 5515 5517 5528 5535 5537 5543 5551 5560 5565 5569 5573 5573 5573 5573 5573 5574 5573 5572 5571 5569 5569 5569 5567 5567 5567 5567 5566 5564 5562 5560
5454 5459 5465 5472 5479 5486 5494 5501 5506 5508 5510 5512 5516 5518 5519 5535 5544 5548 5553 5560 5566 5571 5573 5575 5575 5575 5576 5575 5575 5573 5572 5571 5570 5569 5568 5566 5564 5564 5564 5562 5560 5557 5554
5460 5466 5472 5478 5485 5489 5498 5504 5508 5510 5513 5516 5521 5526 5531 5543 5551 5556 5560 5566 5570 5574 5577 5577 5578 5578 5579 5578 5577 5575 5574 5572 5570 5568 5566 5564 5563 5561 5559 5557 5554 5551 5549
5470 5475 5481 5488 5494 5501 5506 5509 5512 5516 5519 5524 5531 5536 5544 5551 5557 5562 5566 5571 5574 5577 5578 5578 5579 5580 5579 5577 5577 5575 5574 5573 5570 5567 5564 5563 5561 5559 5557 5553 5551 5549 5546
5484 5488 5494 5500 5505 5509 5513 5517 5520 5525 5530 5535 5542 5548 5554 5560 5565 5568 5572 5575 5576 5577 5576 5577 5578 5579 5577 5576 5575 5574 5572 5568 5566 5565 5562 5559 5558 5557 5555 5552 5549 5547 5545
5498 5503 5508 5513 5517 5520 5523 5528 5533 5538 5543 5548 5555 5561 5566 5570 5574 5576 5578 5578 5576 5575 5573 5574 5575 5576 5575 5574 5572 5570 5566 5563 5560 5558 5559 5558 5556 5554 5552 5551 5549 5547 5545